Weather History for Truckee-Tahoe, CA

Change the Weather History Date:

Thursday, February 27, 2014

  Actual Average Record
Temperature  
Mean Temperature 32 °F -  
Max Temperature 39 °F 45 °F 63 °F (1991)
Min Temperature 26 °F 19 °F -23 °F (1962)
Degree Days  
Heating Degree Days 32    
Moisture  
Dew Point 30 °F    
Average Humidity 91    
Maximum Humidity 100    
Minimum Humidity 75    
Precipitation  
Precipitation 0.13 in - - ()
Snow  
Snow 0.00 in - - ()
Snow Depth 1.00 in    
Sea Level Pressure  
Sea Level Pressure 29.80 in    
Wind  
Wind Speed 8 mph (SSW)    
Max Wind Speed 15 mph    
Max Gust Speed 29 mph    
Visibility 7 miles    
Events Rain , Snow    
Averages and records for this station are not official NWS values.
T = Trace of Precipitation, MM = Missing Value Source: NWS Daily Summary

Daily Weather History Graph

Daily Weather History Graph

Search for Another Location

Airport:

Trip Planner

Search our weather history database for the weather conditions in past years. The results will help you decide how hot, cold, wet, or windy it might be!

Date:

Astronomy

Feb. 27, 2014 Rise Set
Actual Time 6:36 AM PST 5:50 PM PST
Civil Twilight 6:09 AM PST 6:17 PM PST
Nautical Twilight 5:38 AM PST 6:49 PM PST
Astronomical Twilight 5:07 AM PST 7:20 PM PST
Moon 5:11 AM PST (2/27) 4:22 PM PST (2/27)
Length of Visible Light 12h 08m
Length of Day
11h 14m
Waning Crescent, 3% of the Moon is Illuminated
Feb 27
Waning Crescent
Mar 1
New
Mar 8
First Quarter
Mar 16
Full
Mar 23
Last Quarter

Hourly Weather History & Observations

Time (PST) Temp. Windchill Dew Point Humidity Pressure Visibility Wind Dir Wind Speed Gust Speed Precip Events Conditions
12:15 AM 35.6 °F 27.1 °F 32.0 °F 87% 29.73 in 7.0 mi South 12.7 mph 28.8 mph 0.01 in Rain Rain
12:35 AM 35.6 °F 27.5 °F 32.0 °F 87% 29.73 in 10.0 mi South 11.5 mph - 0.01 in Rain Light Rain
12:55 AM 35.6 °F 30.7 °F 33.8 °F 93% 29.71 in 10.0 mi South 5.8 mph 17.3 mph 0.02 in Rain Light Rain
1:15 AM 33.8 °F 23.9 °F 32.0 °F 93% 29.75 in 2.5 mi WSW 15.0 mph 25.3 mph 0.03 in Rain Light Rain
1:35 AM 32.0 °F 22.1 °F 32.0 °F 100% 29.75 in 1.8 mi SSW 13.8 mph 20.7 mph 0.05 in Snow Light Snow
1:55 AM 32.0 °F 24.8 °F 32.0 °F 100% 29.74 in 3.0 mi SW 8.1 mph - 0.05 in Snow Light Snow
2:15 AM 32.0 °F 25.6 °F 32.0 °F 100% 29.75 in 4.0 mi South 6.9 mph - 0.01 in Snow Light Snow
2:35 AM 32.0 °F - 32.0 °F 100% 29.76 in 3.0 mi Calm Calm - 0.02 in Snow Light Snow
2:55 AM 32.0 °F 24.2 °F 32.0 °F 100% 29.75 in 2.0 mi SSW 9.2 mph 21.9 mph 0.03 in Snow Light Snow
3:15 AM 32.0 °F 25.6 °F 32.0 °F 100% 29.75 in 5.0 mi SW 6.9 mph - N/A Snow Light Snow
3:35 AM 32.0 °F 25.6 °F 32.0 °F 100% 29.75 in 2.5 mi SSW 6.9 mph - N/A Snow Light Snow
3:55 AM 32.0 °F 24.2 °F 32.0 °F 100% 29.76 in 1.0 mi SW 9.2 mph 24.2 mph 0.01 in Snow Snow
4:15 AM 32.0 °F 24.2 °F 32.0 °F 100% 29.76 in 2.0 mi WSW 9.2 mph 20.7 mph N/A Snow Light Snow
4:35 AM 32.0 °F - 32.0 °F 100% 29.77 in 1.2 mi Calm Calm - 0.01 in Snow Light Snow
4:55 AM 32.0 °F 28.7 °F 30.2 °F 93% 29.77 in 3.0 mi SSW 3.5 mph - 0.01 in Snow Light Snow
5:15 AM 32.0 °F 27.5 °F 32.0 °F 100% 29.78 in 1.0 mi SSW 4.6 mph - 0.01 in Snow Light Snow
5:35 AM 32.0 °F 26.4 °F 30.2 °F 93% 29.80 in 5.0 mi West 5.8 mph - 0.01 in Snow Light Snow
6:55 AM 30.2 °F 24.3 °F 28.4 °F 93% 29.79 in 6.0 mi SSW 5.8 mph - N/A Snow Light Snow
7:50 AM 30.2 °F - 28.4 °F 93% 29.82 in 1.0 mi Calm Calm - N/A Snow Light Snow
8:55 AM 33.8 °F 27.7 °F 30.2 °F 87% 29.82 in 2.0 mi SSW 6.9 mph - N/A Snow Light Snow
9:55 AM 35.6 °F 28.6 °F 30.2 °F 81% 29.82 in 4.0 mi SW 9.2 mph - N/A Snow Light Snow
11:45 AM 39.2 °F 30.8 °F 33.8 °F 81% 29.82 in 10.0 mi SSW 15.0 mph 19.6 mph N/A   Mostly Cloudy
11:55 AM - - - %  in - Calm Calm - -  
12:50 PM 39.2 °F 32.5 °F 33.8 °F 81% 29.82 in 10.0 mi South 10.4 mph 17.3 mph N/A   Mostly Cloudy
1:45 PM 39.2 °F 32.0 °F 32.0 °F 75% 29.84 in 10.0 mi South 11.5 mph 23.0 mph N/A   Mostly Cloudy
2:50 PM 37.4 °F 28.9 °F 30.2 °F 75% 29.84 in 10.0 mi South 13.8 mph 20.7 mph N/A   Mostly Cloudy
3:45 PM 37.4 °F 28.9 °F 30.2 °F 75% 29.86 in 5.0 mi SSW 13.8 mph 17.3 mph N/A Snow Light Snow
4:45 PM 35.6 °F 29.2 °F 32.0 °F 87% 29.86 in 8.0 mi South 8.1 mph - N/A   Mostly Cloudy
4:55 PM 35.6 °F 30.7 °F 32.0 °F 87% 29.86 in 10.0 mi South 5.8 mph 17.3 mph N/A Rain Rain
5:15 PM 35.6 °F 29.2 °F 30.2 °F 81% 29.86 in 10.0 mi South 8.1 mph 17.3 mph N/A   Overcast
5:35 PM 33.8 °F 26.4 °F 28.4 °F 81% 29.86 in 10.0 mi SSW 9.2 mph - N/A   Mostly Cloudy
5:55 PM 33.8 °F 28.6 °F 28.4 °F 81% 29.86 in 10.0 mi SSW 5.8 mph 18.4 mph N/A   Scattered Clouds
6:15 PM 33.8 °F 29.6 °F 26.6 °F 75% 29.85 in 10.0 mi South 4.6 mph - N/A   Clear
6:35 PM 32.0 °F 26.4 °F 26.6 °F 80% 29.84 in 10.0 mi South 5.8 mph - N/A   Clear
6:55 PM 32.0 °F 24.8 °F 28.4 °F 87% 29.84 in 10.0 mi South 8.1 mph - N/A   Clear
7:15 PM 30.2 °F 25.4 °F 26.6 °F 86% 29.83 in 10.0 mi SW 4.6 mph - N/A   Clear
7:35 PM 30.2 °F 24.3 °F 26.6 °F 86% 29.82 in 10.0 mi WSW 5.8 mph - N/A   Clear
7:55 PM 30.2 °F 26.7 °F 26.6 °F 86% 29.82 in 10.0 mi NNE 3.5 mph - N/A   Clear
8:15 PM 30.2 °F - 28.4 °F 93% 29.82 in 10.0 mi Calm Calm - N/A   Clear
8:35 PM 30.2 °F - 28.4 °F 93% 29.82 in 10.0 mi Calm Calm - N/A   Clear
8:55 PM 30.2 °F - 28.4 °F 93% 29.82 in 10.0 mi Calm Calm - N/A   Clear
9:15 PM 30.2 °F - 28.4 °F 93% 29.81 in 10.0 mi Calm Calm - N/A   Clear
9:30 PM 28.4 °F 24.6 °F 28.4 °F 100% 29.80 in 10.0 mi East 3.5 mph - N/A   Clear
9:55 PM 28.4 °F - 26.6 °F 93% 29.79 in 10.0 mi Calm Calm - N/A   Clear
10:15 PM 28.4 °F - 26.6 °F 93% 29.78 in 10.0 mi Calm Calm - N/A   Clear
10:35 PM 28.4 °F - 28.4 °F 100% 29.77 in 10.0 mi Calm Calm - N/A   Clear
10:55 PM 26.6 °F - 26.6 °F 100% 29.77 in 10.0 mi Calm Calm - N/A   Mostly Cloudy
11:15 PM 28.4 °F - 26.6 °F 93% 29.77 in 10.0 mi Calm Calm - N/A   Scattered Clouds
11:35 PM 28.4 °F - 26.6 °F 93% 29.76 in 10.0 mi Calm Calm - N/A   Clear
11:55 PM 26.6 °F - 26.6 °F 100% 29.76 in 10.0 mi Calm Calm - N/A   Clear